When you browse on this site, cookies collect data to enhance your experience and personalize the content and advertising you see.
Visit our Privacy Policy to learn more. By continuing to use the site, you agree to this use of cookies and data.
  • In Schweiz
  • Länderverzeichnis
  • Für 7 Tage
  • Wassertemperatur
  • Wetterkarte
  • Widgets
  • user-avatar
    Anmelden

    Stündliche Wetter Marin

    Heute, 14 Dezember, Samstag

    Zeit Temperatur Niederschläge Wind Luftdruck Luftfeuchtigkeit
    00:00 +12°C° 0.2 mm 5 m/S 756 mmHg 94%
    01:00 +12°C° 0.2 mm 5 m/S 755 mmHg 93%
    02:00 +12°C° 0.2 mm 5 m/S 755 mmHg 93%
    03:00 +12°C° 0.2 mm 5 m/S 755 mmHg 93%
    04:00 +12°C° 0.2 mm 5 m/S 755 mmHg 93%
    05:00 +12°C° 0.2 mm 5 m/S 755 mmHg 94%
    06:00 +12°C° 0.1 mm 5 m/S 754 mmHg 93%
    07:00 +12°C° 0.1 mm 5 m/S 754 mmHg 93%
    08:00 +12°C° 0.1 mm 5 m/S 754 mmHg 93%
    09:00 +13°C° 0.1 mm 6 m/S 754 mmHg 92%
    10:00 +13°C° 0.1 mm 6 m/S 753 mmHg 91%
    11:00 +13°C° 0.1 mm 6 m/S 753 mmHg 90%
    12:00 +13°C° 0.2 mm 6 m/S 753 mmHg 90%
    13:00 +12°C° 0.2 mm 7 m/S 752 mmHg 90%
    14:00 +14°C° 0.2 mm 7 m/S 751 mmHg 89%
    15:00 +14°C° 0.3 mm 7 m/S 751 mmHg 90%
    16:00 +12°C° 0.3 mm 7 m/S 751 mmHg 91%
    17:00 +12°C° 0.3 mm 7 m/S 751 mmHg 91%
    18:00 +12°C° 0.5 mm 8 m/S 751 mmHg 91%
    19:00 +12°C° 0.5 mm 8 m/S 751 mmHg 90%
    20:00 +12°C° 0.5 mm 8 m/S 750 mmHg 89%
    21:00 +12°C° 1.9 mm 8 m/S 750 mmHg 91%
    22:00 +12°C° 1.9 mm 7 m/S 750 mmHg 94%
    23:00 +12°C° 1.9 mm 7 m/S 749 mmHg 96%

    Morgen, 15 Dezember, Sonntag

    Zeit Temperatur Niederschläge Wind Luftdruck Luftfeuchtigkeit
    00:00 +13°C° 5.1 mm 6 m/S 749 mmHg 96%
    01:00 +12°C° 5.1 mm 4 m/S 749 mmHg 97%
    02:00 +12°C° 5.1 mm 3 m/S 749 mmHg 97%
    03:00 +11°C° 1.4 mm 3 m/S 749 mmHg 97%
    04:00 +11°C° 1.4 mm 3 m/S 749 mmHg 96%
    05:00 +12°C° 1.4 mm 2 m/S 748 mmHg 96%
    06:00 +12°C° 0.3 mm 2 m/S 749 mmHg 95%
    07:00 +12°C° 0.3 mm 2 m/S 749 mmHg 95%
    08:00 +10°C° 0.3 mm 2 m/S 749 mmHg 94%
    09:00 +10°C° 0.1 mm 2 m/S 749 mmHg 93%
    10:00 +12°C° 0.1 mm 2 m/S 748 mmHg 91%
    11:00 +12°C° 0.1 mm 2 m/S 748 mmHg 89%
    12:00 +12°C° 0.1 mm 2 m/S 748 mmHg 90%
    13:00 +10°C° 0.1 mm 3 m/S 747 mmHg 90%
    14:00 +10°C° 0.1 mm 3 m/S 746 mmHg 90%
    15:00 +10°C° 0.5 mm 3 m/S 746 mmHg 92%
    16:00 +10°C° 0.5 mm 3 m/S 745 mmHg 94%
    17:00 +10°C° 0.5 mm 2 m/S 745 mmHg 95%
    18:00 +10°C° 1 mm 2 m/S 745 mmHg 96%
    19:00 +10°C° 1 mm 2 m/S 745 mmHg 96%
    20:00 +11°C° 1 mm 1 m/S 745 mmHg 96%
    21:00 +10°C° 0.8 mm 1 m/S 744 mmHg 96%
    22:00 +10°C° 0.8 mm 1 m/S 744 mmHg 95%
    23:00 +10°C° 0.8 mm 1 m/S 743 mmHg 95%

    übermorgen, 16 Dezember, Montag

    Zeit Temperatur Niederschläge Wind Luftdruck Luftfeuchtigkeit
    00:00 +9°C° 0.5 mm 1 m/S 743 mmHg 95%
    01:00 +9°C° 0.5 mm 1 m/S 742 mmHg 95%
    02:00 +8°C° 0.5 mm 2 m/S 742 mmHg 95%
    03:00 +8°C° 0.4 mm 2 m/S 741 mmHg 95%
    04:00 +8°C° 0.4 mm 2 m/S 741 mmHg 95%
    05:00 +8°C° 0.4 mm 2 m/S 740 mmHg 96%
    06:00 +8°C° 0.5 mm 2 m/S 740 mmHg 95%
    07:00 +8°C° 0.5 mm 3 m/S 740 mmHg 95%
    08:00 +8°C° 0.5 mm 3 m/S 740 mmHg 94%
    09:00 +8°C° 0.2 mm 3 m/S 740 mmHg 92%
    10:00 +7°C° 0.2 mm 4 m/S 740 mmHg 91%
    11:00 +7°C° 0.2 mm 4 m/S 740 mmHg 89%
    12:00 +7°C° 0.1 mm 4 m/S 740 mmHg 88%
    13:00 +7°C° 0.1 mm 4 m/S 739 mmHg 88%
    14:00 +7°C° 0.1 mm 4 m/S 739 mmHg 87%
    15:00 +7°C° 0.3 mm 4 m/S 740 mmHg 88%
    16:00 +6°C° 0.3 mm 4 m/S 740 mmHg 90%
    17:00 +6°C° 0.3 mm 4 m/S 740 mmHg 92%
    18:00 +6°C° 0.1 mm 4 m/S 741 mmHg 92%
    19:00 +5°C° 0.1 mm 4 m/S 741 mmHg 92%
    20:00 +5°C° 0.1 mm 4 m/S 742 mmHg 92%
    21:00 +5°C° 0 mm 4 m/S 742 mmHg 92%
    22:00 +5°C° 0 mm 3 m/S 742 mmHg 93%
    23:00 +5°C° 0 mm 3 m/S 743 mmHg 93%

    17 Dezember, Dienstag

    Zeit Temperatur Niederschläge Wind Luftdruck Luftfeuchtigkeit
    00:00 +5°C° 0 mm 3 m/S 743 mmHg 93%
    01:00 +5°C° 0 mm 4 m/S 744 mmHg 93%
    02:00 +5°C° 0 mm 4 m/S 744 mmHg 94%
    03:00 +4°C° 0 mm 3 m/S 745 mmHg 94%
    04:00 +4°C° 0 mm 3 m/S 745 mmHg 94%
    05:00 +3°C° 0 mm 3 m/S 746 mmHg 94%
    06:00 +4°C° 0 mm 3 m/S 747 mmHg 94%
    07:00 +4°C° 0 mm 3 m/S 747 mmHg 93%
    08:00 +5°C° 0 mm 2 m/S 748 mmHg 93%
    09:00 +6°C° 0 mm 2 m/S 749 mmHg 86%
    10:00 +8°C° 0 mm 2 m/S 749 mmHg 79%
    11:00 +9°C° 0 mm 2 m/S 750 mmHg 72%
    12:00 +10°C° 0 mm 1 m/S 750 mmHg 70%
    13:00 +10°C° 0 mm 1 m/S 750 mmHg 68%
    14:00 +10°C° 0 mm 1 m/S 750 mmHg 67%
    15:00 +9°C° 0 mm 1 m/S 750 mmHg 73%
    16:00 +8°C° 0 mm 1 m/S 751 mmHg 79%
    17:00 +6°C° 0 mm 1 m/S 751 mmHg 85%
    18:00 +5°C° 0 mm 2 m/S 751 mmHg 85%
    19:00 +5°C° 0 mm 2 m/S 752 mmHg 86%
    20:00 +3°C° 0 mm 3 m/S 752 mmHg 87%
    21:00 +3°C° 0 mm 3 m/S 752 mmHg 87%
    22:00 +3°C° 0 mm 4 m/S 751 mmHg 86%
    23:00 +3°C° 0 mm 4 m/S 751 mmHg 85%

    18 Dezember, Mittwoch

    Zeit Temperatur Niederschläge Wind Luftdruck Luftfeuchtigkeit
    00:00 +3°C° 0 mm 5 m/S 750 mmHg 84%
    01:00 +3°C° 0 mm 5 m/S 750 mmHg 83%
    02:00 +4°C° 0 mm 6 m/S 749 mmHg 81%
    03:00 +4°C° 0.8 mm 6 m/S 748 mmHg 85%
    04:00 +4°C° 0.8 mm 6 m/S 747 mmHg 89%
    05:00 +4°C° 0.8 mm 6 m/S 747 mmHg 93%
    06:00 +4°C° 1 mm 6 m/S 746 mmHg 93%
    07:00 +5°C° 1 mm 6 m/S 745 mmHg 94%
    08:00 +5°C° 1 mm 6 m/S 745 mmHg 94%
    09:00 +7°C° 4.3 mm 6 m/S 744 mmHg 95%
    10:00 +8°C° 4.3 mm 7 m/S 743 mmHg 95%
    11:00 +7°C° 4.3 mm 8 m/S 742 mmHg 95%
    12:00 +9°C° 5 mm 7 m/S 742 mmHg 96%
    13:00 +10°C° 5 mm 7 m/S 741 mmHg 96%
    14:00 +11°C° 5 mm 7 m/S 740 mmHg 97%
    15:00 +11°C° 1.2 mm 7 m/S 741 mmHg 95%
    16:00 +11°C° 1.2 mm 7 m/S 741 mmHg 92%
    17:00 +11°C° 1.2 mm 7 m/S 742 mmHg 90%
    18:00 +10°C° 1 mm 7 m/S 742 mmHg 90%
    19:00 +10°C° 1 mm 7 m/S 742 mmHg 90%
    20:00 +10°C° 1 mm 8 m/S 742 mmHg 90%
    21:00 +10°C° 1.1 mm 8 m/S 742 mmHg 90%
    22:00 +9°C° 1.1 mm 8 m/S 742 mmHg 89%
    23:00 +9°C° 1.1 mm 8 m/S 743 mmHg 88%

    19 Dezember, Donnerstag

    Zeit Temperatur Niederschläge Wind Luftdruck Luftfeuchtigkeit
    00:00 +9°C° 1 mm 7 m/S 742 mmHg 89%
    01:00 +9°C° 1 mm 7 m/S 742 mmHg 90%
    02:00 +9°C° 1 mm 6 m/S 742 mmHg 90%
    03:00 +9°C° 1.1 mm 6 m/S 742 mmHg 91%
    04:00 +8°C° 1.1 mm 6 m/S 742 mmHg 91%
    05:00 +8°C° 1.1 mm 5 m/S 742 mmHg 92%
    06:00 +8°C° 0.9 mm 5 m/S 743 mmHg 92%
    07:00 +8°C° 0.9 mm 5 m/S 743 mmHg 92%
    08:00 +8°C° 0.9 mm 5 m/S 743 mmHg 92%
    09:00 +9°C° 0.9 mm 6 m/S 743 mmHg 90%
    10:00 +9°C° 0.9 mm 6 m/S 743 mmHg 89%
    11:00 +10°C° 0.9 mm 7 m/S 743 mmHg 87%
    12:00 +9°C° 2.1 mm 6 m/S 741 mmHg 90%
    13:00 +9°C° 2.1 mm 6 m/S 739 mmHg 93%
    14:00 +8°C° 2.1 mm 5 m/S 738 mmHg 96%
    15:00 +8°C° 2.8 mm 5 m/S 736 mmHg 96%
    16:00 +8°C° 2.8 mm 6 m/S 734 mmHg 96%
    17:00 +8°C° 2.8 mm 6 m/S 732 mmHg 96%
    18:00 +9°C° 1.6 mm 6 m/S 732 mmHg 96%
    19:00 +10°C° 1.6 mm 6 m/S 733 mmHg 95%
    20:00 +11°C° 1.6 mm 6 m/S 733 mmHg 94%
    21:00 +10°C° 0.2 mm 5 m/S 734 mmHg 94%
    22:00 +9°C° 0.2 mm 5 m/S 734 mmHg 95%
    23:00 +8°C° 0.2 mm 4 m/S 735 mmHg 95%
    Mehr zeigen